This is the latest recevied weather packets stored in our database for station/object W5CDN. If no packets are shown the sender has not sent any weather packets the latest 10 day(s).
| Time | Temp. | Humidity | Pressure | Rain* | Wind** | Luminosity | Snow |
|---|---|---|---|---|---|---|---|
| 1787591190 | 35.56° C | 45% | 1014.6 hPa | 0 mm | - | - | - |
| 1787590890 | 34.44° C | 46% | 1014.6 hPa | 0 mm | - | - | - |
| 1787590590 | 35° C | 46% | 1014.7 hPa | 0 mm | - | - | - |
| 1787590290 | 34.44° C | 47% | 1014.8 hPa | 0 mm | - | - | - |
| 1787589990 | 33.89° C | 47% | 1014.9 hPa | 0 mm | - | - | - |
| 1787589690 | 35° C | 48% | 1014.7 hPa | 0 mm | - | - | - |
| 1787589390 | 34.44° C | 47% | 1015 hPa | 0 mm | - | - | - |
| 1787589090 | 33.89° C | 48% | 1015.2 hPa | 0 mm | - | - | - |
| 1787588790 | 33.33° C | 49% | 1015.2 hPa | 0 mm | - | - | - |
| 1787588490 | 33.89° C | 48% | 1015.1 hPa | 0 mm | - | - | - |
| 1787588190 | 33.89° C | 48% | 1015.2 hPa | 0 mm | - | - | - |
| 1787587890 | 33.89° C | 48% | 1015.1 hPa | 0 mm | - | - | - |
| 1787587590 | 33.33° C | 48% | 1015.4 hPa | 0 mm | - | - | - |
| 1787587290 | 32.78° C | 50% | 1015.1 hPa | 0 mm | - | - | - |
| 1787586990 | 32.78° C | 50% | 1015.3 hPa | 0 mm | - | - | - |
| 1787586690 | 32.22° C | 51% | 1015.2 hPa | 0 mm | - | - | - |
| 1787586390 | 32.22° C | 51% | 1015.1 hPa | 0 mm | - | - | - |
| 1787586090 | 31.67° C | 52% | 1015.2 hPa | 0 mm | - | - | - |
| 1787585790 | 31.67° C | 52% | 1015.1 hPa | 0 mm | - | - | - |
| 1787585490 | 31.67° C | 53% | 1015.2 hPa | 0 mm | - | - | - |
| 1787585190 | 31.67° C | 53% | 1014.9 hPa | 0 mm | - | - | - |
| 1787584890 | 31.11° C | 53% | 1014.9 hPa | 0 mm | - | - | - |
| 1787584590 | 31.11° C | 53% | 1015 hPa | 0 mm | - | - | - |
| 1787584290 | 31.11° C | 53% | 1014.9 hPa | 0 mm | - | - | - |
| 1787583990 | 32.22° C | 52% | 1014.7 hPa | 0 mm | - | - | - |
* Rain latest hour (hover to see other rain measurements)
** Current wind speed in m/s (hover to see current wind gust speed)